Regional Weather Roundup
Issued by NWS Wakefield, VA

Home | Current Version | Previous Version | Graphics & Text | Print | Product List | Glossary On
Versions: 1 2 3 4 5 6 7 8 9 10 11 12 13 14 15 16 17 18 19 20 21 22 23 24 25 26 27 28 29 30 31 32 33 34 35 36 37 38 39 40 41 42 43 44 45 46 47 48 49 50
000
ASUS41 KAKQ 311510
RWRAKQ

REGIONAL WEATHER ROUNDUP
NATIONAL WEATHER SERVICE WAKEFIELD VA
1000 AM EST SAT JAN 31 2015

Note: "fair" indicates few or no clouds below 12,000 feet with no
significant weather and/or obstructions to visibility. * = Denotes
station may not report precipitation (e.g., rain,snow,etc.),
thunder or fog.

VAZ042-051-052>054-056-311600-
NORTHERN VIRGINIA

CITY           SKY/WX    TMP DP  RH WIND       PRES   REMARKS
WASH NATIONAL  SUNNY     27   1  32 NW15G24   30.36R WCI  15
DULLES         SUNNY     22   2  42 NW15      30.35R WCI   9
FORT BELVOIR   SUNNY     24   0  35 NW14G20   30.36R WCI  12
QUANTICO       SUNNY     27   1  32 N10G25    30.38R WCI  17
FREDERICKSBRG* SUNNY     28   2  33 N8        30.36R
STAFFORD*      SUNNY     27  -1  29 NW7G17    30.39R
WARRENTON      SUNNY     29   9  43 N6        30.33R
CULPEPER*      SUNNY     27   1  33 NE6       30.34R
MANASSAS*      SUNNY     25   7  46 N16G24    30.36R WCI  12
LEESBURG*      SUNNY     23   9  54 N13G21    30.35R WCI  11
WINCHESTER     SUNNY     23   5  46 NW14      30.33R WCI  11
FRONT ROYAL*   FAIR      25   3  39 NW3       30.31R
LURAY*         FAIR      30   5  34 SE3       30.30S
$$

VAZ048-049-060>072-079>083-311600-
CENTRAL AND SOUTH CENTRAL VIRGINIA

CITY           SKY/WX    TMP DP  RH WIND       PRES   REMARKS
RICHMOND       SUNNY     28   5  37 NW6       30.36R
CHESTERFIELD*  FAIR      28   3  34 W3        30.37R
PETERSBURG*    SUNNY     29   8  40 SW5       30.37S
HANOVER        SUNNY     25   6  44 W6        30.37R
TAPPAHANNOCK*  SUNNY     28  -4  24 NW13      30.35R WCI  17
QUINTON*       FAIR      26   5  41 NW6       30.36R
CHARLOTTSVILLE SUNNY     28   1  31 S7        30.31R
GORDONSVILLE*  FAIR      25   7  47 CALM      30.33R
ORANGE*        SUNNY     28   7  40 CALM      30.34S
LOUISA*        SUNNY     27   9  46 CALM      30.32R
BUMPASS*       FAIR      26   7  45 CALM      30.34R
FARMVILLE*     SUNNY     33  14  45 S3        30.34R
CREWE*         FAIR      31   4  32 SW3       30.35R
FORT PICKETT*  FAIR      30   8  38 W6        30.35R
CHASE CITY*    FAIR      32  10  40 W8        30.36R
CLARKSVILLE*   FAIR      32  10  40 NW5       30.35S
SOUTH HILL*    SUNNY     30   8  38 W5        30.42R
LAWRENCEVILLE* FAIR      30  10  43 CALM      30.36R
EMPORIA*       SUNNY     30  12  47 NW5       30.39S
$$

VAZ088>098-311600-
SOUTHEAST VIRGINIA

CITY           SKY/WX    TMP DP  RH WIND       PRES   REMARKS
NORFOLK        SUNNY     29   2  31 N12G21    30.34R WCI  19
VIRGINIA BEACH MOSUNNY   30   8  39 NW18G28   30.33R WCI  18
NORFOLK NAVAL  MOSUNNY   33   5  30 NW16G23   30.36R WCI  23
WEST POINT*    SUNNY     30  -2  25 NW6       30.37R
SALUDA*        FAIR      25   4  39 NW13G22   30.33R WCI  14
NEWPORT NEWS   SUNNY     33   3  28 NW13G23   30.35R WCI  24
LANGLEY AFB    SUNNY     28   2  32 NW13G22   30.34R WCI  18
FORT EUSTIS    SUNNY     28   8  42 N10       30.34R WCI  18
WILLIAMSBURG*    N/A     30   9  40 NW10      30.37R WCI  21
HR EXEC AP*    FAIR      28   9  43 NW8       30.38R
FRANKLIN*      SUNNY     27   8  44 NW5       30.38R
WAKEFIELD      SUNNY     28   7  41 VRB6      30.37R
$$

VAZ020-022-025-037-045-311600-
WEST CENTRAL AND SOUTHWEST VIRGINIA

CITY           SKY/WX    TMP DP  RH WIND       PRES   REMARKS
STAUNTON*      SUNNY     24   6  45 CALM      30.30S
WAYNESBORO*    FAIR      26  -3  29 W5        30.26R
HOT SPRINGS VA SUNNY     16  -1  47 W15       30.10R WCI   1
LYNCHBURG      SUNNY     28   6  39 SW8       30.33R
DANVILLE       SUNNY     32  12  43 VRB5      30.37R
SOUTH BOSTON*  FAIR      32   7  34 W7        30.37R
MARTINSVILLE   SUNNY     32  10  40 CALM      30.37S
ROANOKE        MOSUNNY   29   7  39 SW5       30.32R
BLACKSBURG     SUNNY     24   9  53 W10G16    30.30R WCI  13
DUBLIN*        SUNNY     30   9  41 W8        30.30R
MARION*        SUNNY     27  13  56 W15G21    30.31R WCI  15
HILLSVILLE*    SUNNY     26   6  43 NW16      30.25R WCI  14
RICHLANDS*     FAIR      22  11  61 CALM      30.31R
WISE*          SUNNY     28  12  50 W5        30.31F
ABINGDON*      SUNNY     30  16  55 SW6       30.35R
$$

MDZ021>025-VAZ099-100-311600-
SOUTHERN MARYLAND AND THE DELMARVA PENINSULA

CITY           SKY/WX    TMP DP  RH WIND       PRES   REMARKS
PATUXENT RIVER SUNNY     25   4  40 NW18      30.32R WCI  11
BAY BRIDGE APT   N/A     25   5  42 NW14G21   30.32S WCI  13
LEONARDTOWN    SUNNY     27   0  31 NW9G18    30.33S
DOVER          SUNNY     21   1  40 NW18G30   30.28R WCI   7
GEORGETOWN     SUNNY     22   1  40 NW8G25    30.28R
EASTON         SUNNY     27  10  50 NW20      30.34R WCI  13
CAMBRIDGE      SUNNY     27   9  46 NW13G23   30.31R WCI  16
SALISBURY      SUNNY     27   6  41 NW21G29   30.28R WCI  13
OCEAN CITY     SUNNY     24   2  38 N18G30    30.27R WCI  10
WALLOPS ISLAND SUNNY     26   7  44 NW12G24   30.29R WCI  16
ACCOMACK*      SUNNY     27  10  50 NW20G28   30.30S WCI  13
$$

NCZ012>017-030>032-311600-
NORTH CENTRAL AND EASTERN NORTH CAROLINA

CITY           SKY/WX    TMP DP  RH WIND       PRES   REMARKS
ROANOKE RAPIDS FAIR      32  12  43 NW6       30.37S
RALEIGH        PTSUNNY   33   6  32 NW7       30.37R
ELIZABETH CITY SUNNY     30   9  41 NW14      30.36R WCI  19
AHOSKIE*       SUNNY     31   9  39 NW6       30.38S
EDENTON*       SUNNY     32  12  43 NW15G21   30.36R WCI  22
CURRITUCK*     SUNNY     29   6  36 NW10      30.35R WCI  20
KILL DEVIL HLS SUNNY     29   9  42 NW14G24   30.31R WCI  19
MANTEO         SUNNY     30   9  40 NW18G28   30.33R WCI  18
CAPE HATTERAS  SUNNY     33  13  43 N15G25    30.33R WCI  23
TARBORO*       FAIR      34  10  35 N12G17    30.38S
GOLDSBORO      SUNNY     28  14  54 NW6       30.29R
WASHINGTON     SUNNY     33  11  40 NW10      30.37R WCI  24
GREENVILLE     SUNNY     34  10  37 N9        30.37S
NEW BERN       SUNNY     36  11  35 NW13      30.37R
WILMINGTON     SUNNY     36   9  32 N13       30.39R
$$

VAZ048-311600-
ELSEWHERE

CITY           SKY/WX    TMP DP  RH WIND       PRES   REMARKS
HARRISBURG PA  MOSUNNY   18   4  54 NW23      30.31R WCI   0
BALTIMORE      SUNNY     23   3  42 NW13G25   30.32R WCI  11
ANNAPOLIS      SUNNY     23   7  50 NW13      30.32S WCI  11
ANDREWS AFB    SUNNY     24   1  37 NW18      30.32R WCI   9
PHILADELPHIA   SUNNY     19  -3  38 NW18G29   30.28R WCI   4
HENDERSON NC   SUNNY     33   5  30 NW6       30.36R
GREENSBORO     PTSUNNY   34   7  32 NW8       30.34R
ROCKY MOUNT    SUNNY     35   8  32 N12       30.37S
$$

VAZ100-311600-
MARINE

STATION/POSITION TIME  TEMP    WIND        PRES    WAVE   SWELL
                       AIR SEA DIR/SP/G            HT/PER HT/PER
                 (UTC) (F)     (DEG/KT/KT) (MB)    (FT/S) (FT/S)
BRANDYWINE LGT   1500   19 35  340/ 26/ 33 1024.2F
CAPE MAY NJ      1500   20                 1023.8S
LEWES DE         1500   21 32  320/ 27/ 32 1024.7R
15NM E FENWICK I 1500   23 39              1023.0R   7/ 6
OCEAN-CITY-INLET 1500   22 36  350/ 16/ 20 1024.4R
WACHAPREAGUE VA  1500   27 34  320/  5/ 16 1025.9S
THOMAS POINT MD  1500   22 34  310/ 17/ 20 1027.7R
GOOSES REEF MD   1500   24 35  VRB 16/ 17  1025.8R   2/ 3
COVE POINT MD    1500   22     340/ 16/ 20 1026.5R
SOLOMONS ISLAND  1500      36                N/A
BISHOPS HEAD MD  1500   23 30  320/ 16/ 23 1026.1R
PINEY POINT MD   1500          340/ 23/ 27   N/A
POTOMAC MD       1500   25 36  330/ 17/ 23 1025.7R   3/ 4
CAMBRIDGE MD     1500   22 32  310/ 14/ 20 1026.4R
LEWISETTA VA     1500   25 34  320/ 15/ 18 1027.1S
RAPPAHANNOCK LGT 1500          320/ 21/ 25 1026.8S
STINGRAY PT      1500   26 34  330/ 16/ 19 1027.2R   1/ 2
YORK RVR RNG VA  1500   27     330/ 14/ 18 1026.7R
YORKTOWN VA      1500   27 38  320/ 19/ 24 1027.2R
JAMESTOWN VA     1500   25 39  330/ 10/ 14   N/A     1
DOMINION TERM VA 1500   27     320/ 11/ 16 1027.6R
KIPTOPEKE VA     1500      40  340/ 21/ 25   N/A
CHES BAY BRIDGE  1500   26 38  310/ 21/ 24 1026.8R
CAPE HENRY VA    1500   26     320/ 20/ 25 1025.8R
CHESAPEAKE LGHT  1400   25     320/ 27/ 31 1026.6
WILLOUBY STN VA  1500   27     330/ 20/ 23 1027.9R
S CRANEY ISL VA  1500          320/ 10/ 15 1027.5R
CAPE HENRY BUOY  1500      42                N/A     6/ 5
1ST LANDING BUOY 1500   28 39  330/ 19/ 25 1026.7R   4/ 4
CAPE CHARLES BUO 1500      39                N/A     4/ 3   2/ 7
OFFSHORE WE BUOY 1500      43                N/A     8/ 7   2/13
64NM E OF VA BCH 1500   30 48  330/ 27/ 35 1024.1R  10/ 8
DUCK PIER NC     1500   27 40  320/ 22/ 26 1025.6R
44100 DUCK FRF   1500      43                N/A     8/ 8
44056 DUCK FRF   1500      41                N/A     6/ 8
OREGON INLET NC  1500   29 40  320/ 16/ 25 1026.6R
HATTERAS NC      1500   31 40  340/ 26/ 31 1027.2R



USA.gov is the U.S. government's official web portal to all federal, state and local government web resources and services.